Wind_Speed
17 18 19 20 20 19 17 14 11 8 6 6 6 6 8 11 11 12 12 9 8 7 5 5 5 4 6 3 3 4 8 10 11
17 19 20 20 20 20 19 17 14 10 7 5 5 4 5 7 8 9 11 9 7 6 4 4 3 2 3 2 1 2 6 8 9
18 19 20 20 20 20 21 19 16 13 10 7 4 3 3 5 5 7 8 9 8 6 4 3 3 3 1 2 2 3 5 6 7
20 21 21 21 20 18 19 20 19 16 14 11 7 4 3 2 2 5 4 6 8 8 4 3 3 4 3 2 4 4 6 6 7
22 23 23 23 22 19 18 18 20 19 18 15 12 9 6 4 3 1 3 3 6 8 7 4 3 4 4 2 3 5 8 8 8
21 24 24 24 23 22 20 19 18 19 20 20 18 15 11 9 5 3 1 2 3 6 7 5 4 5 3 3 2 4 7 9 10
22 23 26 27 26 25 23 22 21 19 20 21 21 19 17 13 9 7 5 3 3 4 6 7 4 5 5 3 3 3 6 9 10
26 25 25 27 29 28 27 25 23 22 21 21 20 21 20 18 13 11 9 7 5 4 5 6 4 5 7 7 6 5 4 7 9
29 29 28 27 29 30 30 29 27 25 24 23 21 20 21 22 18 15 12 10 8 6 5 5 4 4 8 10 8 8 7 6 8
31 31 32 31 30 31 32 31 30 29 27 26 23 21 21 23 21 20 16 14 12 9 6 7 5 5 7 11 12 10 9 9 8
32 34 34 35 34 33 31 33 32 31 29 29 27 24 23 22 23 23 20 18 15 13 10 8 7 5 7 11 14 13 10 10 9
29 34 36 36 36 37 34 33 34 33 32 31 31 27 25 23 24 24 23 21 19 17 13 11 8 7 8 10 14 16 13 11 11
29 31 35 37 38 39 38 36 35 34 34 33 34 31 29 26 25 26 25 24 22 20 18 14 12 10 8 10 13 16 16 14 13
31 33 35 36 39 39 40 40 39 36 36 36 36 35 32 30 28 27 27 26 25 23 21 19 16 14 12 10 12 14 16 15 15
32 35 36 37 37 41 41 41 41 41 39 37 38 37 36 34 31 30 29 28 28 27 25 23 20 18 16 14 12 13 15 16 16
33 36 38 38 39 38 43 43 44 43 42 42 40 39 39 38 36 33 32 30 29 30 28 27 25 22 20 19 16 15 15 16 16
35 38 39 41 40 40 38 43 44 47 46 45 45 44 42 40 38 37 36 34 32 32 32 31 29 26 23 21 21 18 17 17 16
40 40 41 44 43 41 39 38 42 41 42 43 44 47 46 44 43 41 40 38 37 35 35 35 34 31 28 24 24 24 21 20 19
44 43 43 44 47 46 43 42 40 46 43 41 39 40 41 44 44 45 44 43 41 41 39 38 37 36 33 29 26 26 27 24 24
48 46 46 45 46 49 48 46 46 46 46 45 44 42 44 45 45 46 47 47 46 45 44 42 39 39 37 35 31 29 29 29 26
Wind_Direction
201 198 198 199 198 195 190 191 187 179 154 137 120 99 80 72 69 62 54 62 79 80 67 67 85 107 146 109 33 41 35 41 46
210 207 204 206 205 208 204 201 201 198 190 169 144 123 99 75 73 69 55 49 66 77 61 43 59 127 187 235 314 3 18 21 25
213 216 213 211 211 212 216 214 214 212 214 209 184 161 148 103 74 72 60 44 53 66 63 29 22 16 334 246 254 319 350 358 1
218 216 219 219 216 215 220 223 224 225 226 231 227 219 221 168 92 63 59 45 36 51 50 40 4 354 6 272 274 301 329 338 341
225 222 221 222 221 222 224 227 230 232 236 239 242 241 240 236 220 85 35 30 24 37 33 15 345 343 353 335 285 298 316 326 334
233 229 225 225 226 226 228 232 235 237 238 240 242 249 250 244 244 241 325 342 350 20 28 19 337 323 344 330 300 325 323 323 330
235 237 233 230 229 228 230 235 238 243 244 245 243 245 248 251 245 244 246 283 303 334 6 19 349 301 306 300 312 349 353 348 349
230 236 240 236 234 232 232 235 239 243 246 249 247 245 246 249 244 244 242 250 277 295 321 3 352 292 285 287 298 318 356 357 357
235 231 236 240 239 237 235 237 238 242 245 247 248 245 243 248 246 242 243 244 252 273 293 315 333 290 273 277 285 303 324 344 349
237 234 231 235 240 241 239 239 239 240 243 244 246 245 243 244 244 245 242 244 246 258 267 288 299 296 269 274 273 283 304 321 335
239 237 235 234 236 242 242 241 240 242 243 245 245 244 245 243 247 248 244 245 244 249 261 266 284 273 270 270 269 274 287 302 312
247 240 237 237 234 237 241 244 243 242 240 242 245 245 247 246 248 248 248 247 249 248 251 260 269 264 273 281 265 268 280 289 295
252 248 243 238 238 237 237 242 245 244 244 244 245 243 245 246 249 249 249 249 250 251 253 258 262 251 256 279 273 258 270 283 286
251 249 246 241 239 237 237 238 242 246 245 244 246 247 245 246 247 251 251 250 250 252 253 253 261 261 248 254 272 258 261 274 283
252 249 249 248 241 239 239 236 238 241 243 246 248 249 250 250 250 252 253 251 253 251 251 253 254 261 256 250 252 257 260 267 277
254 251 248 249 246 241 240 241 236 239 242 243 246 249 250 251 250 251 254 256 255 254 253 254 253 258 263 255 242 250 257 262 270
256 257 251 250 249 246 246 241 239 240 241 241 242 245 248 251 254 253 252 253 253 255 255 254 253 253 257 263 256 243 255 260 265
252 252 251 250 249 248 246 246 245 244 245 242 243 246 246 248 249 250 252 252 253 253 253 254 253 251 251 255 259 257 247 255 260
253 252 253 250 248 247 247 247 247 245 247 245 246 246 245 246 249 252 251 252 252 253 253 253 253 254 253 252 256 259 257 252 258
253 254 253 252 250 249 248 247 249 250 253 248 253 252 253 249 250 252 254 252 252 253 254 255 254 255 254 252 253 256 258 257 257
Height
5885 5887 5889 5891 5894 5895 5897 5899 5900 5901 5902 5902 5903 5905 5905 5906 5906 5906 5906 5905 5905 5904 5904 5904 5904 5904 5904 5903 5903 5902 5901 5899 5897
5884 5887 5889 5891 5894 5896 5897 5899 5900 5901 5902 5903 5904 5905 5906 5906 5907 5907 5907 5907 5907 5906 5906 5906 5906 5905 5905 5904 5903 5902 5901 5900 5899
5883 5885 5888 5890 5893 5895 5897 5898 5900 5901 5902 5903 5904 5905 5906 5907 5907 5908 5908 5908 5907 5907 5907 5907 5907 5906 5905 5905 5904 5903 5902 5901 5899
5880 5883 5886 5889 5892 5894 5895 5897 5899 5901 5902 5904 5905 5906 5907 5907 5908 5908 5908 5908 5908 5907 5907 5907 5908 5907 5907 5905 5905 5904 5903 5901 5900
5878 5881 5884 5887 5890 5892 5894 5896 5897 5899 5901 5903 5905 5906 5907 5907 5907 5908 5909 5908 5908 5907 5908 5908 5908 5908 5908 5907 5906 5905 5904 5902 5900
5875 5878 5881 5884 5887 5890 5892 5893 5895 5897 5899 5901 5903 5905 5906 5906 5907 5907 5908 5908 5908 5908 5908 5907 5908 5908 5907 5907 5906 5905 5904 5902 5901
5873 5875 5878 5880 5884 5887 5889 5891 5893 5895 5897 5898 5901 5903 5905 5906 5906 5906 5907 5907 5908 5908 5907 5907 5907 5908 5908 5907 5906 5905 5904 5902 5901
5869 5872 5875 5877 5880 5883 5886 5887 5890 5892 5894 5895 5898 5900 5903 5903 5905 5905 5906 5906 5907 5906 5906 5906 5906 5906 5907 5906 5906 5905 5903 5903 5901
5865 5868 5871 5873 5876 5879 5882 5884 5886 5888 5891 5893 5895 5897 5900 5900 5903 5903 5904 5905 5906 5906 5906 5904 5904 5905 5905 5906 5905 5905 5904 5902 5901
5860 5864 5867 5869 5872 5874 5877 5880 5883 5885 5886 5889 5891 5894 5896 5897 5899 5901 5902 5902 5904 5904 5904 5903 5903 5903 5904 5904 5904 5904 5904 5902 5900
5854 5858 5861 5863 5868 5869 5872 5875 5878 5881 5883 5885 5887 5890 5892 5895 5896 5898 5900 5900 5901 5902 5902 5901 5901 5901 5902 5902 5903 5903 5902 5902 5900
5848 5851 5855 5857 5862 5864 5867 5870 5873 5876 5878 5880 5882 5886 5888 5891 5892 5894 5896 5898 5899 5899 5899 5899 5899 5899 5899 5900 5900 5901 5901 5901 5899
5842 5845 5848 5851 5854 5857 5861 5864 5867 5870 5873 5876 5877 5880 5883 5886 5888 5889 5892 5894 5895 5896 5897 5897 5897 5896 5896 5897 5897 5898 5899 5899 5898
5836 5838 5841 5844 5847 5851 5854 5857 5861 5864 5867 5870 5872 5875 5878 5881 5883 5885 5888 5889 5892 5893 5894 5894 5895 5895 5893 5893 5894 5895 5896 5897 5896
5830 5832 5835 5837 5840 5844 5846 5850 5854 5857 5860 5864 5866 5870 5872 5876 5879 5881 5883 5885 5887 5889 5890 5891 5891 5891 5891 5890 5890 5892 5893 5893 5894
5823 5824 5827 5829 5832 5836 5838 5842 5845 5848 5853 5857 5860 5863 5865 5869 5872 5875 5877 5880 5882 5884 5885 5887 5888 5888 5889 5888 5887 5888 5889 5890 5890
5817 5818 5820 5822 5825 5828 5832 5834 5836 5839 5844 5848 5851 5855 5859 5862 5865 5869 5870 5873 5875 5878 5880 5882 5883 5884 5884 5886 5885 5884 5886 5886 5886
5808 5810 5812 5814 5817 5821 5824 5827 5829 5832 5835 5840 5844 5846 5851 5854 5856 5860 5863 5866 5868 5871 5873 5875 5877 5879 5879 5880 5881 5882 5881 5881 5882
5798 5801 5804 5806 5808 5812 5816 5819 5822 5824 5828 5832 5835 5838 5842 5845 5849 5851 5854 5857 5860 5863 5865 5868 5870 5873 5874 5875 5876 5877 5877 5877 5877
5789 5792 5794 5797 5800 5803 5807 5811 5814 5817 5819 5822 5826 5831 5834 5837 5840 5842 5845 5848 5852 5855 5857 5860 5863 5866 5868 5869 5870 5871 5871 5872 5872